This is the latest recevied weather packets stored in our database for station/object EA7HQL-10. If no packets are shown the sender has not sent any weather packets the latest 1 day(s).
| Time | Temp. | Humidity | Pressure | Rain* | Wind** | Luminosity | Snow |
|---|---|---|---|---|---|---|---|
| 1778026369 | 18.89° C | 48% | 1009.4 hPa | 0 mm | 2.68 m/s, 174° | - | - |
| 1778026079 | 19.44° C | 47% | 1009.5 hPa | 0 mm | 2.24 m/s, 270° | - | - |
| 1778025809 | 19.44° C | 47% | 1009.7 hPa | 0 mm | 2.24 m/s, 254° | - | - |
| 1778025554 | 19.44° C | 47% | 1009.6 hPa | 0 mm | 1.79 m/s, 85° | - | - |
| 1778025259 | 19.44° C | 46% | 1009.6 hPa | 0 mm | 0.89 m/s, 179° | - | - |
| 1778025009 | 19.44° C | 46% | 1009.5 hPa | 0 mm | 1.79 m/s, 308° | - | - |
| 1778024734 | 20° C | 45% | 1009.5 hPa | 0 mm | 2.68 m/s, 42° | - | - |
| 1778024494 | 19.44° C | 46% | 1009.5 hPa | 0 mm | 1.79 m/s, 321° | - | - |
| 1778024254 | 19.44° C | 46% | 1009.5 hPa | 0 mm | 0.89 m/s, 119° | - | - |
| 1778023954 | 20° C | 46% | 1009.5 hPa | 0 mm | 0 m/s | - | - |
| 1778023684 | 20° C | 45% | 1009.7 hPa | 0 mm | 2.24 m/s, 317° | - | - |
| 1778023399 | 20° C | 44% | 1009.5 hPa | 0 mm | 0.89 m/s, 49° | - | - |
| 1778023104 | 20° C | 44% | 1009.5 hPa | 0 mm | 2.24 m/s, 102° | - | - |
| 1778022809 | 20° C | 44% | 1009.7 hPa | 0 mm | 1.34 m/s, 316° | - | - |
| 1778022559 | 20° C | 43% | 1009.5 hPa | 0 mm | 2.24 m/s, 305° | - | - |
| 1778022262 | 20° C | 44% | 1009.5 hPa | 0 mm | 1.34 m/s, 307° | - | - |
| 1778021959 | 20° C | 44% | 1009.5 hPa | 0 mm | 1.79 m/s, 16° | - | - |
| 1778021709 | 20.56° C | 43% | 1009.5 hPa | 0 mm | 0.89 m/s, 97° | - | - |
| 1778021454 | 20.56° C | 43% | 1009.5 hPa | 0 mm | 1.34 m/s, 317° | - | - |
| 1778021162 | 20.56° C | 43% | 1009.5 hPa | 0 mm | 0.89 m/s, 295° | - | - |
| 1778020924 | 20.56° C | 43% | 1009.7 hPa | 0 mm | 0.89 m/s, 318° | - | - |
| 1778020624 | 20.56° C | 43% | 1009.6 hPa | 0 mm | 0.89 m/s, 288° | - | - |
| 1778020349 | 20.56° C | 43% | 1009.7 hPa | 0 mm | 0.89 m/s, 294° | - | - |
| 1778020104 | 20.56° C | 43% | 1009.6 hPa | 0 mm | 1.79 m/s, 323° | - | - |
| 1778019829 | 20.56° C | 42% | 1009.5 hPa | 0 mm | 3.13 m/s, 15° | - | - |
* Rain latest hour (hover to see other rain measurements)
** Current wind speed in m/s (hover to see current wind gust speed)